����������;��������(kWh)
2019-04-29 00:00;67,55
2019-04-29 00:15;65,6
2019-04-29 00:30;65,85
2019-04-29 00:45;67,9
2019-04-29 01:00;69,15
2019-04-29 01:15;70,1
2019-04-29 01:30;70,05
2019-04-29 01:45;67,9
2019-04-29 02:00;68,7
2019-04-29 02:15;68,85
2019-04-29 02:30;67,9
2019-04-29 02:45;68,6
2019-04-29 03:00;69,7
2019-04-29 03:15;69,6
2019-04-29 03:30;68,85
2019-04-29 03:45;67,45
2019-04-29 04:00;68,5
2019-04-29 04:15;67,8
2019-04-29 04:30;66,65
2019-04-29 04:45;66,95
2019-04-29 05:00;66,45
2019-04-29 05:15;67,45
2019-04-29 05:30;68,35
2019-04-29 05:45;66,1
2019-04-29 06:00;65,95
2019-04-29 06:15;67,5
2019-04-29 06:30;63,15
2019-04-29 06:45;62,45
2019-04-29 07:00;60,8
2019-04-29 07:15;62,4
2019-04-29 07:30;60,5
2019-04-29 07:45;61,4
2019-04-29 08:00;62,8
2019-04-29 08:15;60,75
2019-04-29 08:30;60,15
2019-04-29 08:45;60,4
2019-04-29 09:00;60,1
2019-04-29 09:15;61,45
2019-04-29 09:30;61,85
2019-04-29 09:45;60,95
2019-04-29 10:00;64,95
2019-04-29 10:15;67,15
2019-04-29 10:30;65
2019-04-29 10:45;65,45
2019-04-29 11:00;64,2
2019-04-29 11:15;66,45
2019-04-29 11:30;65,1
2019-04-29 11:45;64,45
2019-04-29 12:00;63,1
2019-04-29 12:15;62,35
2019-04-29 12:30;61,15
2019-04-29 12:45;60,1
2019-04-29 13:00;61
2019-04-29 13:15;62,05
2019-04-29 13:30;60,75
2019-04-29 13:45;59,8
2019-04-29 14:00;59,7
2019-04-29 14:15;61,95
2019-04-29 14:30;61,95
2019-04-29 14:45;60,3
2019-04-29 15:00;61,1
2019-04-29 15:15;62,9
2019-04-29 15:30;62,1
2019-04-29 15:45;60,4
2019-04-29 16:00;60,65
2019-04-29 16:15;61,45
2019-04-29 16:30;62,2
2019-04-29 16:45;61,15
2019-04-29 17:00;60,3
2019-04-29 17:15;61,35
2019-04-29 17:30;62,5
2019-04-29 17:45;61,6
2019-04-29 18:00;62,65
2019-04-29 18:15;60,65
2019-04-29 18:30;62,25
2019-04-29 18:45;66,4
2019-04-29 19:00;66
2019-04-29 19:15;68,35
2019-04-29 19:30;67,7
2019-04-29 19:45;71,1
2019-04-29 20:00;71,45
2019-04-29 20:15;70,35
2019-04-29 20:30;68,1
2019-04-29 20:45;70,65
2019-04-29 21:00;70,35
2019-04-29 21:15;69,85
2019-04-29 21:30;68,85
2019-04-29 21:45;68,9
2019-04-29 22:00;69,05
2019-04-29 22:15;68,65
2019-04-29 22:30;68,45
2019-04-29 22:45;69,3
2019-04-29 23:00;74,15
2019-04-29 23:15;70,9
2019-04-29 23:30;72,05
2019-04-29 23:45;68,9
2019-04-30 00:00;66,3
2019-04-30 00:15;66,4
2019-04-30 00:30;68,2
2019-04-30 00:45;66,75
2019-04-30 01:00;68,1
2019-04-30 01:15;67,85
2019-04-30 01:30;68,15
2019-04-30 01:45;70,25
2019-04-30 02:00;69,55
2019-04-30 02:15;71,05
2019-04-30 02:30;70,1
2019-04-30 02:45;68,35
2019-04-30 03:00;68,2
2019-04-30 03:15;69,1
2019-04-30 03:30;68,9
2019-04-30 03:45;68,9
2019-04-30 04:00;70,75
2019-04-30 04:15;67,55
2019-04-30 04:30;67,7
2019-04-30 04:45;68,3
2019-04-30 05:00;67,3
2019-04-30 05:15;67,4
2019-04-30 05:30;67,3
2019-04-30 05:45;66,7
2019-04-30 06:00;65,9
2019-04-30 06:15;65
2019-04-30 06:30;64,7
2019-04-30 06:45;62,15
2019-04-30 07:00;61,9
2019-04-30 07:15;61,95
2019-04-30 07:30;62,95
2019-04-30 07:45;64
2019-04-30 08:00;62,25
2019-04-30 08:15;61,6
2019-04-30 08:30;62,75
2019-04-30 08:45;62,3
2019-04-30 09:00;60,85
2019-04-30 09:15;62,7
2019-04-30 09:30;61,05
2019-04-30 09:45;64,75
2019-04-30 10:00;62,45
2019-04-30 10:15;62,55
2019-04-30 10:30;65,7
2019-04-30 10:45;67,8
2019-04-30 11:00;65,85
2019-04-30 11:15;64,95
2019-04-30 11:30;66,5
2019-04-30 11:45;66,9
2019-04-30 12:00;68,1
2019-04-30 12:15;68,35
2019-04-30 12:30;68,1
2019-04-30 12:45;70,15
2019-04-30 13:00;65,7
2019-04-30 13:15;65,1
2019-04-30 13:30;65,9
2019-04-30 13:45;66,4
2019-04-30 14:00;65,25
2019-04-30 14:15;64,65
2019-04-30 14:30;65,55
2019-04-30 14:45;64,85
2019-04-30 15:00;65,7
2019-04-30 15:15;64,55
2019-04-30 15:30;64,1
2019-04-30 15:45;63,3
2019-04-30 16:00;64,7
2019-04-30 16:15;65,9
2019-04-30 16:30;63,95
2019-04-30 16:45;64,3
2019-04-30 17:00;64,7
2019-04-30 17:15;64,7
2019-04-30 17:30;63,6
2019-04-30 17:45;62,3
2019-04-30 18:00;63,4
2019-04-30 18:15;67,4
2019-04-30 18:30;67,55
2019-04-30 18:45;67,2
2019-04-30 19:00;66,55
2019-04-30 19:15;67,75
2019-04-30 19:30;68,95
2019-04-30 19:45;71,55
2019-04-30 20:00;69,85
2019-04-30 20:15;67,25
2019-04-30 20:30;69,75
2019-04-30 20:45;70,8
2019-04-30 21:00;70,4
2019-04-30 21:15;71,6
2019-04-30 21:30;69,75
2019-04-30 21:45;69,8
2019-04-30 22:00;68,3
2019-04-30 22:15;68,2
2019-04-30 22:30;68,55
2019-04-30 22:45;70,1
2019-04-30 23:00;74,8
2019-04-30 23:15;72
2019-04-30 23:30;70,5
2019-04-30 23:45;67,65
2019-05-01 00:00;66,85
2019-05-01 00:15;66,35
2019-05-01 00:30;68,15
2019-05-01 00:45;71,25
2019-05-01 01:00;69,25
2019-05-01 01:15;69,35
2019-05-01 01:30;68,55
2019-05-01 01:45;69
2019-05-01 02:00;68,5
2019-05-01 02:15;69,1
2019-05-01 02:30;69,65
2019-05-01 02:45;69,25
2019-05-01 03:00;68,6
2019-05-01 03:15;69,85
2019-05-01 03:30;68,95
2019-05-01 03:45;68,6
2019-05-01 04:00;68,8
2019-05-01 04:15;68,95
2019-05-01 04:30;69,35
2019-05-01 04:45;67,55
2019-05-01 05:00;66,25
2019-05-01 05:15;65,7
2019-05-01 05:30;68,2
2019-05-01 05:45;67,45
2019-05-01 06:00;68,75
2019-05-01 06:15;67
2019-05-01 06:30;64,05
2019-05-01 06:45;63,3
2019-05-01 07:00;63
2019-05-01 07:15;61,5
2019-05-01 07:30;62,85
2019-05-01 07:45;65,35
2019-05-01 08:00;63,25
2019-05-01 08:15;62,4
2019-05-01 08:30;62,55
2019-05-01 08:45;62,2
2019-05-01 09:00;63,3
2019-05-01 09:15;61,35
2019-05-01 09:30;63,3
2019-05-01 09:45;62,2
2019-05-01 10:00;62,15
2019-05-01 10:15;61,1
2019-05-01 10:30;61,25
2019-05-01 10:45;63,7
2019-05-01 11:00;66
2019-05-01 11:15;66,95
2019-05-01 11:30;65,85
2019-05-01 11:45;64,75
2019-05-01 12:00;64,95
2019-05-01 12:15;66,25
2019-05-01 12:30;65,15
2019-05-01 12:45;66,55
2019-05-01 13:00;64,95
2019-05-01 13:15;63,8
2019-05-01 13:30;62,3
2019-05-01 13:45;62,45
2019-05-01 14:00;62,35
2019-05-01 14:15;61,35
2019-05-01 14:30;61,55
2019-05-01 14:45;62,95
2019-05-01 15:00;64,5
2019-05-01 15:15;65,1
2019-05-01 15:30;65,65
2019-05-01 15:45;64,5
2019-05-01 16:00;63,75
2019-05-01 16:15;63,4
2019-05-01 16:30;64,1
2019-05-01 16:45;64,85
2019-05-01 17:00;67
2019-05-01 17:15;68,2
2019-05-01 17:30;67
2019-05-01 17:45;67
2019-05-01 18:00;66,25
2019-05-01 18:15;67,4
2019-05-01 18:30;67,35
2019-05-01 18:45;67,6
2019-05-01 19:00;65,1
2019-05-01 19:15;64,8
2019-05-01 19:30;64,85
2019-05-01 19:45;66,15
2019-05-01 20:00;65,7
2019-05-01 20:15;67,9
2019-05-01 20:30;72,15
2019-05-01 20:45;71,5
2019-05-01 21:00;70,25
2019-05-01 21:15;69,75
2019-05-01 21:30;68,05
2019-05-01 21:45;70,95
2019-05-01 22:00;71,05
2019-05-01 22:15;72,75
2019-05-01 22:30;73,8
2019-05-01 22:45;70,75
2019-05-01 23:00;76,1
2019-05-01 23:15;71,75
2019-05-01 23:30;73,2
2019-05-01 23:45;70,35
2019-05-02 00:00;68,3
2019-05-02 00:15;68,15
2019-05-02 00:30;68,4
2019-05-02 00:45;67,1
2019-05-02 01:00;67,15
2019-05-02 01:15;66,45
2019-05-02 01:30;67,45
2019-05-02 01:45;68,75
2019-05-02 02:00;67,7
2019-05-02 02:15;66,45
2019-05-02 02:30;69
2019-05-02 02:45;67,4
2019-05-02 03:00;67,35
2019-05-02 03:15;67,75
2019-05-02 03:30;67,3
2019-05-02 03:45;66,95
2019-05-02 04:00;67,95
2019-05-02 04:15;66,1
2019-05-02 04:30;69,3
2019-05-02 04:45;66,8
2019-05-02 05:00;66,4
2019-05-02 05:15;65,7
2019-05-02 05:30;69,1
2019-05-02 05:45;67,7
2019-05-02 06:00;68,6
2019-05-02 06:15;64,8
2019-05-02 06:30;63
2019-05-02 06:45;62,25
2019-05-02 07:00;63,55
2019-05-02 07:15;65,1
2019-05-02 07:30;66,45
2019-05-02 07:45;66,65
2019-05-02 08:00;67
2019-05-02 08:15;69,4
2019-05-02 08:30;70,25
2019-05-02 08:45;72,05
2019-05-02 09:00;73,8
2019-05-02 09:15;77,75
2019-05-02 09:30;77,3
2019-05-02 09:45;79,1
2019-05-02 10:00;84,3
2019-05-02 10:15;86,05
2019-05-02 10:30;86,35
2019-05-02 10:45;92,1
2019-05-02 11:00;88,2
2019-05-02 11:15;88,25
2019-05-02 11:30;89,2
2019-05-02 11:45;89,25
2019-05-02 12:00;87,55
2019-05-02 12:15;88,5
2019-05-02 12:30;88,45
2019-05-02 12:45;88,3
2019-05-02 13:00;88,35
2019-05-02 13:15;86,55
2019-05-02 13:30;86,4
2019-05-02 13:45;84,25
2019-05-02 14:00;83,3
2019-05-02 14:15;84,65
2019-05-02 14:30;83,05
2019-05-02 14:45;82,75
2019-05-02 15:00;80,65
2019-05-02 15:15;80,25
2019-05-02 15:30;77,65
2019-05-02 15:45;75,9
2019-05-02 16:00;72,45
2019-05-02 16:15;71,35
2019-05-02 16:30;71,25
2019-05-02 16:45;70,5
2019-05-02 17:00;68,95
2019-05-02 17:15;70,4
2019-05-02 17:30;72,8
2019-05-02 17:45;72,4
2019-05-02 18:00;73,35
2019-05-02 18:15;72,45
2019-05-02 18:30;72,2
2019-05-02 18:45;73,15
2019-05-02 19:00;72,95
2019-05-02 19:15;72,95
2019-05-02 19:30;71,8
2019-05-02 19:45;71,4
2019-05-02 20:00;70,7
2019-05-02 20:15;71,55
2019-05-02 20:30;73,8
2019-05-02 20:45;74,7
2019-05-02 21:00;75,25
2019-05-02 21:15;76,4
2019-05-02 21:30;75,05
2019-05-02 21:45;78,5
2019-05-02 22:00;76,95
2019-05-02 22:15;77,4
2019-05-02 22:30;78,05
2019-05-02 22:45;78
2019-05-02 23:00;84,4
2019-05-02 23:15;81,35
2019-05-02 23:30;79,3
2019-05-02 23:45;71,95
2019-05-03 00:00;72,1
2019-05-03 00:15;71,85
2019-05-03 00:30;72,15
2019-05-03 00:45;72,3
2019-05-03 01:00;73,15
2019-05-03 01:15;70,95
2019-05-03 01:30;72,6
2019-05-03 01:45;71,4
2019-05-03 02:00;71,5
2019-05-03 02:15;73,35
2019-05-03 02:30;71,15
2019-05-03 02:45;74,5
2019-05-03 03:00;70,6
2019-05-03 03:15;70,95
2019-05-03 03:30;72,55
2019-05-03 03:45;72,6
2019-05-03 04:00;72,25
2019-05-03 04:15;71,25
2019-05-03 04:30;71,6
2019-05-03 04:45;73,45
2019-05-03 05:00;71,05
2019-05-03 05:15;72,9
2019-05-03 05:30;72,6
2019-05-03 05:45;71,6
2019-05-03 06:00;70,05
2019-05-03 06:15;66,3
2019-05-03 06:30;65,4
2019-05-03 06:45;66,05
2019-05-03 07:00;63,55
2019-05-03 07:15;68,65
2019-05-03 07:30;67
2019-05-03 07:45;67,45
2019-05-03 08:00;68,65
2019-05-03 08:15;68,95
2019-05-03 08:30;71,55
2019-05-03 08:45;72,5
2019-05-03 09:00;73,1
2019-05-03 09:15;74,65
2019-05-03 09:30;76,95
2019-05-03 09:45;78,5
2019-05-03 10:00;77,3
2019-05-03 10:15;78,8
2019-05-03 10:30;79,95
2019-05-03 10:45;80,95
2019-05-03 11:00;80,7
2019-05-03 11:15;82,7
2019-05-03 11:30;82,55
2019-05-03 11:45;83,35
2019-05-03 12:00;83,9
2019-05-03 12:15;84,5
2019-05-03 12:30;84,95
2019-05-03 12:45;86,1
2019-05-03 13:00;83,65
2019-05-03 13:15;83,05
2019-05-03 13:30;86,8
2019-05-03 13:45;88,45
2019-05-03 14:00;86,8
2019-05-03 14:15;82,2
2019-05-03 14:30;80,7
2019-05-03 14:45;78,95
2019-05-03 15:00;77,15
2019-05-03 15:15;76,55
2019-05-03 15:30;74,05
2019-05-03 15:45;74,5
2019-05-03 16:00;71,6
2019-05-03 16:15;71,3
2019-05-03 16:30;71,1
2019-05-03 16:45;70,85
2019-05-03 17:00;70,25
2019-05-03 17:15;70,7
2019-05-03 17:30;73
2019-05-03 17:45;71,3
2019-05-03 18:00;73,3
2019-05-03 18:15;72,6
2019-05-03 18:30;71,5
2019-05-03 18:45;71,1
2019-05-03 19:00;73,3
2019-05-03 19:15;74,85
2019-05-03 19:30;74,15
2019-05-03 19:45;70,5
2019-05-03 20:00;71,35
2019-05-03 20:15;73,5
2019-05-03 20:30;74,95
2019-05-03 20:45;76,55
2019-05-03 21:00;77,7
2019-05-03 21:15;74,75
2019-05-03 21:30;75,6
2019-05-03 21:45;75,3
2019-05-03 22:00;73,65
2019-05-03 22:15;72,9
2019-05-03 22:30;76,7
2019-05-03 22:45;73
2019-05-03 23:00;77,35
2019-05-03 23:15;73
2019-05-03 23:30;73,65
2019-05-03 23:45;69,45
2019-05-04 00:00;69,1
2019-05-04 00:15;67,95
2019-05-04 00:30;69,3
2019-05-04 00:45;67,55
2019-05-04 01:00;67,9
2019-05-04 01:15;67,8
2019-05-04 01:30;67,9
2019-05-04 01:45;68,75
2019-05-04 02:00;68,5
2019-05-04 02:15;70,25
2019-05-04 02:30;71,8
2019-05-04 02:45;72,3
2019-05-04 03:00;72,6
2019-05-04 03:15;72,65
2019-05-04 03:30;73,5
2019-05-04 03:45;73
2019-05-04 04:00;71,75
2019-05-04 04:15;0
2019-05-04 04:30;0
2019-05-04 04:45;0
2019-05-04 05:00;0
2019-05-04 05:15;0
2019-05-04 05:30;0
2019-05-04 05:45;0
2019-05-04 06:00;0
2019-05-04 06:15;0
2019-05-04 06:30;0
2019-05-04 06:45;0
2019-05-04 07:00;0
2019-05-04 07:15;0
2019-05-04 07:30;0
2019-05-04 07:45;0
2019-05-04 08:00;0
2019-05-04 08:15;0
2019-05-04 08:30;0
2019-05-04 08:45;0
2019-05-04 09:00;0
2019-05-04 09:15;0
2019-05-04 09:30;0
2019-05-04 09:45;0
2019-05-04 10:00;0
2019-05-04 10:15;0
2019-05-04 10:30;0
2019-05-04 10:45;0
2019-05-04 11:00;0
2019-05-04 11:15;0
2019-05-04 11:30;0
2019-05-04 11:45;0
2019-05-04 12:00;0
2019-05-04 12:15;0
2019-05-04 12:30;0
2019-05-04 12:45;0
2019-05-04 13:00;0
2019-05-04 13:15;0
2019-05-04 13:30;0
2019-05-04 13:45;0
2019-05-04 14:00;0
2019-05-04 14:15;0
2019-05-04 14:30;0
2019-05-04 14:45;0
2019-05-04 15:00;0
2019-05-04 15:15;0
2019-05-04 15:30;0
2019-05-04 15:45;0
2019-05-04 16:00;0
2019-05-04 16:15;0
2019-05-04 16:30;0
2019-05-04 16:45;0
2019-05-04 17:00;0
2019-05-04 17:15;0
2019-05-04 17:30;0
2019-05-04 17:45;0
2019-05-04 18:00;0
2019-05-04 18:15;0
2019-05-04 18:30;0
2019-05-04 18:45;0
2019-05-04 19:00;0
2019-05-04 19:15;0
2019-05-04 19:30;0
2019-05-04 19:45;0
2019-05-04 20:00;0
2019-05-04 20:15;0
2019-05-04 20:30;0
2019-05-04 20:45;0
2019-05-04 21:00;0
2019-05-04 21:15;0
2019-05-04 21:30;0
2019-05-04 21:45;0
2019-05-04 22:00;0
2019-05-04 22:15;0
2019-05-04 22:30;0
2019-05-04 22:45;0
2019-05-04 23:00;0
2019-05-04 23:15;0
2019-05-04 23:30;0
2019-05-04 23:45;0
2019-05-05 00:00;0
2019-05-05 00:15;0
2019-05-05 00:30;0
2019-05-05 00:45;0
2019-05-05 01:00;0
2019-05-05 01:15;0
2019-05-05 01:30;0
2019-05-05 01:45;0
2019-05-05 02:00;0
2019-05-05 02:15;0
2019-05-05 02:30;0
2019-05-05 02:45;0
2019-05-05 03:00;0
2019-05-05 03:15;0
2019-05-05 03:30;0
2019-05-05 03:45;0
2019-05-05 04:00;0
2019-05-05 04:15;0
2019-05-05 04:30;0
2019-05-05 04:45;0
2019-05-05 05:00;0
2019-05-05 05:15;0
2019-05-05 05:30;0
2019-05-05 05:45;0
2019-05-05 06:00;0
2019-05-05 06:15;0
2019-05-05 06:30;0
2019-05-05 06:45;0
2019-05-05 07:00;0
2019-05-05 07:15;0
2019-05-05 07:30;0
2019-05-05 07:45;0
2019-05-05 08:00;0
2019-05-05 08:15;0
2019-05-05 08:30;0
2019-05-05 08:45;0
2019-05-05 09:00;0
2019-05-05 09:15;0
2019-05-05 09:30;0
2019-05-05 09:45;0
2019-05-05 10:00;0
2019-05-05 10:15;0
2019-05-05 10:30;0
2019-05-05 10:45;0
2019-05-05 11:00;0
2019-05-05 11:15;0
2019-05-05 11:30;0
2019-05-05 11:45;0
2019-05-05 12:00;0
2019-05-05 12:15;0
2019-05-05 12:30;0
2019-05-05 12:45;0
2019-05-05 13:00;0
2019-05-05 13:15;0
2019-05-05 13:30;0
2019-05-05 13:45;0
2019-05-05 14:00;0
2019-05-05 14:15;0
2019-05-05 14:30;0
2019-05-05 14:45;0
2019-05-05 15:00;0
2019-05-05 15:15;0
2019-05-05 15:30;0
2019-05-05 15:45;0
2019-05-05 16:00;0
2019-05-05 16:15;0
2019-05-05 16:30;0
2019-05-05 16:45;0
2019-05-05 17:00;0
2019-05-05 17:15;0
2019-05-05 17:30;0
2019-05-05 17:45;0
2019-05-05 18:00;0
2019-05-05 18:15;0
2019-05-05 18:30;0
2019-05-05 18:45;0
2019-05-05 19:00;0
2019-05-05 19:15;0
2019-05-05 19:30;0
2019-05-05 19:45;0
2019-05-05 20:00;0
2019-05-05 20:15;0
2019-05-05 20:30;0
2019-05-05 20:45;0
2019-05-05 21:00;0
2019-05-05 21:15;0
2019-05-05 21:30;0
2019-05-05 21:45;0
2019-05-05 22:00;0
2019-05-05 22:15;0
2019-05-05 22:30;0
2019-05-05 22:45;0
2019-05-05 23:00;0
2019-05-05 23:15;0
2019-05-05 23:30;0
2019-05-05 23:45;0

